| time (UTC) | temp F | wind direction | speed knots | gust knots | rain 1hr in | rain 24hr in | rain mn in | humidity % | barometer mb |
| 20260906025946 | 60 | 149 | 0.0 | 0.0 | 0.00 | 0.00 | 0.00 | 77 | 1019.4 |
| 20260906025445 | 60 | 149 | 0.0 | 0.0 | 0.00 | 0.00 | 0.00 | 77 | 1019.5 |
| 20260906024944 | 60 | 143 | 0.0 | 0.0 | 0.00 | 0.00 | 0.00 | 76 | 1019.4 |
| 20260906024439 | 61 | 153 | 0.0 | 0.0 | 0.00 | 0.00 | 0.00 | 75 | 1019.4 |
| 20260906023938 | 61 | 151 | 0.0 | 0.0 | 0.00 | 0.00 | 0.00 | 75 | 1019.4 |
| 20260906023435 | 62 | 137 | 0.0 | 0.0 | 0.00 | 0.00 | 0.00 | 72 | 1019.4 |
| 20260906022930 | 62 | 150 | 0.0 | 0.0 | 0.00 | 0.00 | 0.00 | 73 | 1019.1 |
| 20260906022426 | 63 | 151 | 0.0 | 0.0 | 0.00 | 0.00 | 0.00 | 72 | 1019.1 |
| 20260906021921 | 63 | 150 | 0.0 | 0.0 | 0.00 | 0.00 | 0.00 | 69 | 1019.3 |
| 20260906021420 | 63 | 145 | 0.0 | 0.0 | 0.00 | 0.00 | 0.00 | 69 | 1019.3 |
| 20260906020915 | 64 | 145 | 0.0 | 0.0 | 0.00 | 0.00 | 0.00 | 68 | 1019.2 |
| 20260906020415 | 64 | 147 | 0.9 | 0.9 | 0.00 | 0.00 | 0.00 | 68 | 1019.0 |
| 20260906015910 | 65 | 140 | 0.9 | 0.9 | 0.00 | 0.00 | 0.00 | 65 | 1019.2 |
| 20260906015409 | 65 | 149 | 0.0 | 1.7 | 0.00 | 0.00 | 0.00 | 64 | 1019.3 |
| 20260906014908 | 66 | 152 | 0.9 | 0.9 | 0.00 | 0.00 | 0.00 | 64 | 1019.2 |
| 20260906014403 | 68 | 157 | 0.9 | 1.7 | 0.00 | 0.00 | 0.00 | 61 | 1019.1 |
| 20260906013900 | 69 | 153 | 0.0 | 1.7 | 0.00 | 0.00 | 0.00 | 55 | 1019.1 |
| 20260906013355 | 70 | 258 | 1.7 | 2.6 | 0.00 | 0.00 | 0.00 | 52 | 1018.8 |
| 20260906012850 | 70 | 159 | 0.9 | 1.7 | 0.00 | 0.00 | 0.00 | 51 | 1019.0 |
| 20260906012345 | 71 | 150 | 0.0 | 0.9 | 0.00 | 0.00 | 0.00 | 50 | 1019.3 |
| 20260906011844 | 71 | 164 | 0.9 | 1.7 | 0.00 | 0.00 | 0.00 | 50 | 1019.2 |
| 20260906011339 | 72 | 157 | 0.9 | 0.9 | 0.00 | 0.00 | 0.00 | 48 | 1019.0 |
| 20260906010835 | 71 | 153 | 0.9 | 0.9 | 0.00 | 0.00 | 0.00 | 49 | 1019.1 |
| 20260906010331 | 72 | 168 | 0.9 | 1.7 | 0.00 | 0.00 | 0.00 | 48 | 1019.2 |
| 20260906005827 | 72 | 189 | 0.9 | 1.7 | 0.00 | 0.00 | 0.00 | 48 | 1019.1 |
| 20260906005326 | 72 | 164 | 0.9 | 0.9 | 0.00 | 0.00 | 0.00 | 49 | 1019.0 |
| 20260906004825 | 72 | 162 | 0.9 | 0.9 | 0.00 | 0.00 | 0.00 | 48 | 1019.1 |
| 20260906004324 | 72 | 161 | 0.0 | 0.9 | 0.00 | 0.00 | 0.00 | 50 | 1018.9 |
| 20260906003820 | 72 | 164 | 1.7 | 5.2 | 0.00 | 0.00 | 0.00 | 47 | 1018.9 |
| 20260906003315 | 73 | 162 | 1.7 | 2.6 | 0.00 | 0.00 | 0.00 | 47 | 1019.0 |
| 20260906002811 | 73 | 168 | 0.0 | 1.7 | 0.00 | 0.00 | 0.00 | 45 | 1018.8 |
| 20260906002310 | 73 | 178 | 1.7 | 1.7 | 0.00 | 0.00 | 0.00 | 46 | 1018.9 |
| 20260906001806 | 74 | 213 | 2.6 | 2.6 | 0.00 | 0.00 | 0.00 | 46 | 1018.7 |
| 20260906001301 | 73 | 169 | 0.9 | 2.6 | 0.00 | 0.00 | 0.00 | 49 | 1019.0 |
| 20260906000755 | 72 | 198 | 1.7 | 1.7 | 0.00 | 0.00 | 0.00 | 49 | 1018.8 |
| 20260906000250 | 73 | 209 | 2.6 | 5.2 | 0.00 | 0.00 | 0.00 | 49 | 1018.9 |
| 20260905235745 | 72 | 201 | 3.5 | 4.3 | 0.00 | 0.00 | 0.00 | 46 | 1018.8 |
| 20260905235244 | 73 | 197 | 4.3 | 4.3 | 0.00 | 0.00 | 0.00 | 47 | 1018.9 |
| 20260905234741 | 74 | 183 | 2.6 | 5.2 | 0.00 | 0.00 | 0.00 | 44 | 1019.0 |
| 20260905234235 | 74 | 223 | 2.6 | 2.6 | 0.00 | 0.00 | 0.00 | 44 | 1019.0 |
| 20260905233731 | 73 | 190 | 0.9 | 1.7 | 0.00 | 0.00 | 0.00 | 46 | 1018.7 |
| 20260905233230 | 73 | 200 | 2.6 | 4.3 | 0.00 | 0.00 | 0.00 | 47 | 1019.2 |
| 20260905232730 | 73 | 166 | 0.0 | 0.9 | 0.00 | 0.00 | 0.00 | 48 | 1019.2 |
| 20260905232226 | 73 | 177 | 0.9 | 1.7 | 0.00 | 0.00 | 0.00 | 47 | 1019.1 |
| 20260905231721 | 73 | 154 | 0.9 | 2.6 | 0.00 | 0.00 | 0.00 | 52 | 1019.1 |
| 20260905231217 | 73 | 197 | 4.3 | 6.1 | 0.00 | 0.00 | 0.00 | 52 | 1019.0 |
| 20260905230713 | 72 | 160 | 0.0 | 2.6 | 0.00 | 0.00 | 0.00 | 53 | 1019.2 |
| 20260905230211 | 71 | 213 | 1.7 | 1.7 | 0.00 | 0.00 | 0.00 | 55 | 1019.2 |
| 20260905225710 | 71 | 208 | 1.7 | 2.6 | 0.00 | 0.00 | 0.00 | 54 | 1019.3 |
| 20260905225206 | 69 | 221 | 0.9 | 2.6 | 0.00 | 0.00 | 0.00 | 56 | 1019.1 |
| 20260905224705 | 69 | 171 | 0.9 | 1.7 | 0.00 | 0.00 | 0.00 | 57 | 1019.3 |
| 20260905224200 | 70 | 165 | 0.9 | 2.6 | 0.00 | 0.00 | 0.00 | 56 | 1019.2 |
| 20260905223656 | 69 | 175 | 1.7 | 2.6 | 0.00 | 0.00 | 0.00 | 57 | 1019.4 |
| 20260905223153 | 71 | 182 | 3.5 | 7.8 | 0.00 | 0.00 | 0.00 | 55 | 1019.4 |
| 20260905222649 | 70 | 116 | 0.9 | 2.6 | 0.00 | 0.00 | 0.00 | 58 | 1019.3 |
| 20260905222148 | 71 | 73 | 1.7 | 2.6 | 0.00 | 0.00 | 0.00 | 58 | 1019.5 |
| 20260905221644 | 71 | 167 | 0.9 | 5.2 | 0.00 | 0.00 | 0.00 | 58 | 1019.7 |
| 20260905221141 | 69 | 166 | 0.9 | 5.2 | 0.00 | 0.00 | 0.00 | 58 | 1019.8 |
| 20260905220636 | 69 | 72 | 2.6 | 4.3 | 0.00 | 0.00 | 0.00 | 57 | 1019.7 |
| 20260905220132 | 68 | 186 | 1.7 | 4.3 | 0.00 | 0.00 | 0.00 | 60 | 1019.9 |
| 20260905215632 | 68 | 222 | 4.3 | 7.0 | 0.00 | 0.00 | 0.00 | 59 | 1020.0 |
| 20260905215127 | 68 | 204 | 1.7 | 4.3 | 0.00 | 0.00 | 0.00 | 64 | 1020.1 |
| 20260905214623 | 67 | 230 | 3.5 | 6.1 | 0.00 | 0.00 | 0.00 | 64 | 1020.1 |
| 20260905214123 | 66 | 226 | 2.6 | 2.6 | 0.00 | 0.00 | 0.00 | 64 | 1020.1 |
| 20260905213619 | 66 | 192 | 0.0 | 2.6 | 0.00 | 0.00 | 0.00 | 67 | 1020.3 |
| 20260905213114 | 65 | 170 | 0.9 | 1.7 | 0.00 | 0.00 | 0.00 | 68 | 1020.2 |
| 20260905212609 | 64 | 112 | 0.9 | 0.9 | 0.00 | 0.00 | 0.00 | 69 | 1020.1 |
| 20260905212108 | 64 | 102 | 1.7 | 1.7 | 0.00 | 0.00 | 0.00 | 71 | 1020.2 |
| 20260905211603 | 64 | 135 | 1.7 | 1.7 | 0.00 | 0.00 | 0.00 | 70 | 1020.3 |
| 20260905211059 | 64 | 209 | 0.9 | 4.3 | 0.00 | 0.00 | 0.00 | 69 | 1020.3 |
| 20260905210554 | 64 | 193 | 2.6 | 2.6 | 0.00 | 0.00 | 0.00 | 70 | 1020.4 |
| 20260905210049 | 65 | 97 | 1.7 | 2.6 | 0.00 | 0.00 | 0.00 | 70 | 1020.4 |
| 20260905205548 | 65 | 133 | 0.9 | 2.6 | 0.00 | 0.00 | 0.00 | 70 | 1020.5 |
| 20260905205043 | 65 | 156 | 0.0 | 0.0 | 0.00 | 0.00 | 0.00 | 69 | 1020.4 |
| 20260905204538 | 64 | 179 | 1.7 | 2.6 | 0.00 | 0.00 | 0.00 | 69 | 1020.4 |
| 20260905204033 | 64 | 170 | 1.7 | 2.6 | 0.00 | 0.00 | 0.00 | 70 | 1020.5 |
| 20260905203533 | 64 | 132 | 0.9 | 0.9 | 0.00 | 0.00 | 0.00 | 70 | 1020.6 |
| 20260905203028 | 64 | 144 | 0.9 | 1.7 | 0.00 | 0.00 | 0.00 | 68 | 1020.5 |
| 20260905202523 | 64 | 188 | 1.7 | 1.7 | 0.00 | 0.00 | 0.00 | 68 | 1020.7 |
| 20260905202019 | 64 | 148 | 0.0 | 0.9 | 0.00 | 0.00 | 0.00 | 67 | 1020.5 |
| 20260905201515 | 63 | 166 | 0.0 | 0.9 | 0.00 | 0.00 | 0.00 | 68 | 1020.6 |
| 20260905201014 | 63 | 200 | 0.9 | 1.7 | 0.00 | 0.00 | 0.00 | 69 | 1020.7 |
| 20260905200510 | 63 | 196 | 2.6 | 2.6 | 0.00 | 0.00 | 0.00 | 69 | 1020.7 |
| 20260905200009 | 63 | 200 | 2.6 | 4.3 | 0.00 | 0.00 | 0.00 | 70 | 1020.6 |
| 20260905195503 | 63 | 237 | 1.7 | 2.6 | 0.00 | 0.00 | 0.00 | 71 | 1020.6 |
| 20260905194958 | 62 | 183 | 1.7 | 2.6 | 0.00 | 0.00 | 0.00 | 72 | 1020.7 |
| 20260905194458 | 62 | 230 | 1.7 | 2.6 | 0.00 | 0.00 | 0.00 | 72 | 1020.7 |
| 20260905193957 | 63 | 184 | 1.7 | 2.6 | 0.00 | 0.00 | 0.00 | 72 | 1020.8 |
| 20260905193452 | 63 | 152 | 2.6 | 4.3 | 0.00 | 0.00 | 0.00 | 72 | 1020.8 |
| 20260905192947 | 63 | 182 | 1.7 | 2.6 | 0.00 | 0.00 | 0.00 | 72 | 1020.8 |
| 20260905192443 | 63 | 223 | 2.6 | 4.3 | 0.00 | 0.00 | 0.00 | 72 | 1020.9 |
| 20260905191938 | 64 | 148 | 4.3 | 5.2 | 0.00 | 0.00 | 0.00 | 69 | 1020.9 |
| 20260905191438 | 64 | 213 | 1.7 | 4.3 | 0.00 | 0.00 | 0.00 | 70 | 1020.9 |
| 20260905190937 | 64 | 210 | 1.7 | 4.3 | 0.00 | 0.00 | 0.00 | 71 | 1020.9 |
| 20260905190435 | 64 | 126 | 1.7 | 6.1 | 0.00 | 0.00 | 0.00 | 69 | 1021.0 |
| 20260905185934 | 65 | 212 | 5.2 | 7.0 | 0.00 | 0.00 | 0.00 | 68 | 1021.1 |
| 20260905185429 | 64 | 164 | 2.6 | 4.3 | 0.00 | 0.00 | 0.00 | 70 | 1021.1 |
| 20260905184928 | 62 | 186 | 1.7 | 7.8 | 0.00 | 0.00 | 0.00 | 70 | 1021.1 |
| 20260905184423 | 62 | 214 | 2.6 | 4.3 | 0.00 | 0.00 | 0.00 | 72 | 1021.2 |
| 20260905183921 | 61 | 214 | 2.6 | 2.6 | 0.00 | 0.00 | 0.00 | 75 | 1021.1 |
| 20260905183416 | 61 | 184 | 0.9 | 4.3 | 0.00 | 0.00 | 0.00 | 75 | 1021.1 |
| 20260905182911 | 61 | 229 | 2.6 | 4.3 | 0.00 | 0.00 | 0.00 | 74 | 1021.2 |
| 20260905182410 | 61 | 177 | 1.7 | 4.3 | 0.00 | 0.00 | 0.00 | 74 | 1021.2 |
| 20260905181907 | 61 | 166 | 1.7 | 5.2 | 0.00 | 0.00 | 0.00 | 75 | 1021.3 |
| 20260905181406 | 61 | 203 | 0.9 | 2.6 | 0.00 | 0.00 | 0.00 | 75 | 1021.4 |
| 20260905180905 | 61 | 181 | 0.9 | 2.6 | 0.00 | 0.00 | 0.00 | 75 | 1021.3 |
| 20260905180401 | 61 | 167 | 0.9 | 1.7 | 0.00 | 0.00 | 0.00 | 75 | 1021.4 |
| 20260905175855 | 61 | 196 | 1.7 | 2.6 | 0.00 | 0.00 | 0.00 | 75 | 1021.2 |
| 20260905175349 | 60 | 212 | 2.6 | 2.6 | 0.00 | 0.00 | 0.00 | 76 | 1021.5 |
| 20260905174844 | 60 | 194 | 1.7 | 2.6 | 0.00 | 0.00 | 0.00 | 77 | 1021.3 |
| 20260905174340 | 60 | 184 | 0.9 | 1.7 | 0.00 | 0.00 | 0.00 | 77 | 1021.4 |
| 20260905173836 | 60 | 174 | 0.9 | 2.6 | 0.00 | 0.00 | 0.00 | 77 | 1021.1 |
| 20260905173332 | 60 | 200 | 1.7 | 2.6 | 0.00 | 0.00 | 0.00 | 77 | 1021.1 |
| 20260905172832 | 60 | 159 | 0.0 | 0.9 | 0.00 | 0.00 | 0.00 | 77 | 1021.1 |
| 20260905172330 | 60 | 179 | 1.7 | 2.6 | 0.00 | 0.00 | 0.00 | 77 | 1021.1 |
| 20260905171826 | 61 | 179 | 2.6 | 2.6 | 0.00 | 0.00 | 0.00 | 76 | 1021.0 |
| 20260905171323 | 61 | 190 | 1.7 | 2.6 | 0.00 | 0.00 | 0.00 | 75 | 1020.9 |
| 20260905170819 | 60 | 181 | 1.7 | 2.6 | 0.00 | 0.00 | 0.00 | 75 | 1021.1 |
| 20260905170314 | 61 | 185 | 2.6 | 4.3 | 0.00 | 0.00 | 0.00 | 74 | 1021.3 |
| 20260905165813 | 61 | 167 | 0.0 | 1.7 | 0.00 | 0.00 | 0.00 | 73 | 1020.8 |
| 20260905165309 | 62 | 168 | 1.7 | 2.6 | 0.00 | 0.00 | 0.00 | 71 | 1020.8 |
| 20260905164810 | 62 | 146 | 0.0 | 1.7 | 0.00 | 0.00 | 0.00 | 73 | 1021.1 |
| 20260905164309 | 61 | 149 | 0.0 | 0.9 | 0.00 | 0.00 | 0.00 | 75 | 1020.9 |
| 20260905163805 | 60 | 154 | 0.0 | 0.9 | 0.00 | 0.00 | 0.00 | 77 | 1020.9 |
| 20260905163301 | 59 | 167 | 0.0 | 0.9 | 0.00 | 0.00 | 0.00 | 78 | 1020.8 |
| 20260905162757 | 59 | 162 | 0.0 | 0.0 | 0.00 | 0.00 | 0.00 | 79 | 1020.7 |
| 20260905162256 | 58 | 152 | 0.0 | 0.0 | 0.00 | 0.00 | 0.00 | 79 | 1020.8 |
| 20260905161751 | 58 | 130 | 0.0 | 0.0 | 0.00 | 0.00 | 0.00 | 80 | 1020.8 |
| 20260905161250 | 58 | 151 | 0.0 | 0.0 | 0.00 | 0.00 | 0.00 | 80 | 1020.9 |
| 20260905160749 | 58 | 138 | 0.0 | 0.0 | 0.00 | 0.00 | 0.00 | 80 | 1020.6 |
| 20260905160249 | 58 | 138 | 0.0 | 0.0 | 0.00 | 0.00 | 0.00 | 79 | 1020.8 |
| 20260905155744 | 58 | 151 | 0.0 | 0.0 | 0.00 | 0.00 | 0.00 | 80 | 1020.8 |
| 20260905155242 | 58 | 157 | 0.0 | 0.0 | 0.00 | 0.00 | 0.00 | 81 | 1020.8 |
| 20260905154737 | 57 | 159 | 0.0 | 0.0 | 0.00 | 0.00 | 0.00 | 82 | 1020.7 |
| 20260905154233 | 57 | 159 | 0.0 | 0.0 | 0.00 | 0.00 | 0.00 | 82 | 1021.0 |
| 20260905153728 | 57 | 168 | 0.0 | 0.0 | 0.00 | 0.00 | 0.00 | 83 | 1020.9 |
| 20260905153224 | 57 | 156 | 0.0 | 0.0 | 0.00 | 0.00 | 0.00 | 84 | 1021.0 |
| 20260905152719 | 56 | 153 | 0.0 | 0.0 | 0.00 | 0.00 | 0.00 | 85 | 1021.0 |
| 20260905152213 | 56 | 154 | 0.0 | 0.0 | 0.00 | 0.00 | 0.00 | 86 | 1020.7 |
| 20260905151713 | 55 | 142 | 0.0 | 0.0 | 0.00 | 0.00 | 0.00 | 87 | 1020.9 |
| 20260905151209 | 55 | 139 | 0.0 | 0.0 | 0.00 | 0.00 | 0.00 | 89 | 1020.9 |
| 20260905150704 | 54 | 152 | 0.0 | 0.0 | 0.00 | 0.00 | 0.00 | 91 | 1020.9 |
| 20260905150202 | 54 | 154 | 0.0 | 0.0 | 0.00 | 0.00 | 0.00 | 92 | 1020.9 |
| 20260905145700 | 53 | 147 | 0.0 | 0.0 | 0.00 | 0.00 | 0.00 | 92 | 1020.8 |
| 20260905145155 | 53 | 150 | 0.0 | 0.0 | 0.00 | 0.00 | 0.00 | 93 | 1020.8 |
| 20260905144655 | 53 | 155 | 0.0 | 0.0 | 0.00 | 0.00 | 0.00 | 94 | 1020.6 |
| 20260905144154 | 52 | 151 | 0.0 | 0.0 | 0.00 | 0.00 | 0.00 | 94 | 1020.6 |
| 20260905143648 | 52 | 154 | 0.0 | 0.0 | 0.00 | 0.00 | 0.00 | 94 | 1020.7 |
| 20260905143143 | 52 | 155 | 0.0 | 0.0 | 0.00 | 0.00 | 0.00 | 95 | 1020.4 |
| 20260905142641 | 52 | 158 | 0.0 | 0.0 | 0.00 | 0.00 | 0.00 | 94 | 1020.4 |
| 20260905142136 | 52 | 160 | 0.0 | 0.0 | 0.00 | 0.00 | 0.00 | 95 | 1020.5 |
| 20260905141636 | 52 | 158 | 0.0 | 0.0 | 0.00 | 0.00 | 0.00 | 94 | 1020.2 |
| 20260905141133 | 52 | 150 | 0.0 | 0.0 | 0.00 | 0.00 | 0.00 | 94 | 1020.2 |
| 20260905140628 | 52 | 154 | 0.0 | 0.0 | 0.00 | 0.00 | 0.00 | 94 | 1020.3 |
| 20260905140127 | 51 | 154 | 0.0 | 0.0 | 0.00 | 0.00 | 0.00 | 95 | 1020.3 |
| 20260905135622 | 51 | 151 | 0.0 | 0.0 | 0.00 | 0.00 | 0.00 | 95 | 1020.2 |
| 20260905135118 | 51 | 151 | 0.0 | 0.0 | 0.00 | 0.00 | 0.00 | 95 | 1020.2 |
| 20260905134612 | 51 | 150 | 0.0 | 0.0 | 0.00 | 0.00 | 0.00 | 95 | 1020.1 |
| 20260905134111 | 51 | 147 | 0.0 | 0.0 | 0.00 | 0.00 | 0.00 | 95 | 1020.0 |
| 20260905133607 | 51 | 152 | 0.0 | 0.0 | 0.00 | 0.00 | 0.00 | 95 | 1020.0 |
| 20260905133101 | 51 | 152 | 0.0 | 0.0 | 0.00 | 0.00 | 0.00 | 95 | 1020.2 |
| 20260905132600 | 51 | 148 | 0.0 | 0.0 | 0.00 | 0.00 | 0.00 | 95 | 1020.3 |
| 20260905132055 | 51 | 155 | 0.0 | 0.0 | 0.00 | 0.00 | 0.00 | 95 | 1020.1 |
| 20260905131551 | 51 | 151 | 0.0 | 0.0 | 0.00 | 0.00 | 0.00 | 95 | 1020.4 |
| 20260905131046 | 51 | 154 | 0.0 | 0.0 | 0.00 | 0.00 | 0.00 | 95 | 1020.4 |
| 20260905130544 | 51 | 149 | 0.0 | 0.0 | 0.00 | 0.00 | 0.00 | 95 | 1020.1 |
| 20260905130040 | 51 | 150 | 0.0 | 0.0 | 0.00 | 0.00 | 0.00 | 95 | 1020.1 |
| 20260905125539 | 51 | 154 | 0.0 | 0.0 | 0.00 | 0.00 | 0.00 | 95 | 1020.0 |
| 20260905125035 | 51 | 151 | 0.0 | 0.0 | 0.00 | 0.00 | 0.00 | 95 | 1020.2 |
| 20260905124531 | 51 | 147 | 0.0 | 0.0 | 0.00 | 0.00 | 0.00 | 95 | 1020.0 |
| 20260905124027 | 51 | 150 | 0.0 | 0.0 | 0.00 | 0.00 | 0.00 | 95 | 1019.9 |
| 20260905123523 | 51 | 126 | 0.0 | 0.0 | 0.00 | 0.00 | 0.00 | 95 | 1019.9 |
| 20260905123019 | 51 | 152 | 0.0 | 0.0 | 0.00 | 0.00 | 0.00 | 95 | 1020.0 |
| 20260905122513 | 50 | 136 | 0.0 | 0.0 | 0.00 | 0.00 | 0.00 | 95 | 1020.0 |
| 20260905122008 | 50 | 152 | 0.0 | 0.0 | 0.00 | 0.00 | 0.00 | 95 | 1020.1 |
| 20260905121503 | 50 | 141 | 0.0 | 0.0 | 0.00 | 0.00 | 0.00 | 95 | 1020.0 |
| 20260905121002 | 50 | 149 | 0.0 | 0.0 | 0.00 | 0.00 | 0.00 | 95 | 1019.9 |
| 20260905120456 | 50 | 148 | 0.0 | 0.0 | 0.00 | 0.00 | 0.00 | 95 | 1020.1 |
| 20260905115952 | 50 | 155 | 0.0 | 0.0 | 0.00 | 0.00 | 0.00 | 95 | 1020.1 |
| 20260905115451 | 50 | 153 | 0.0 | 0.0 | 0.00 | 0.00 | 0.00 | 95 | 1020.2 |
| 20260905114946 | 50 | 139 | 0.0 | 0.0 | 0.00 | 0.00 | 0.00 | 95 | 1020.0 |
| 20260905114446 | 50 | 158 | 0.0 | 0.0 | 0.00 | 0.00 | 0.00 | 95 | 1020.1 |
| 20260905113944 | 50 | 153 | 0.0 | 0.0 | 0.00 | 0.00 | 0.00 | 95 | 1020.0 |
| 20260905113440 | 50 | 152 | 0.0 | 0.0 | 0.00 | 0.00 | 0.00 | 95 | 1019.9 |
| 20260905112935 | 50 | 150 | 0.0 | 0.0 | 0.00 | 0.00 | 0.00 | 95 | 1019.9 |
| 20260905112430 | 50 | 149 | 0.0 | 0.0 | 0.00 | 0.00 | 0.00 | 95 | 1019.8 |
| 20260905111925 | 50 | 151 | 0.0 | 0.0 | 0.00 | 0.00 | 0.00 | 95 | 1019.8 |
| 20260905111420 | 50 | 152 | 0.0 | 0.0 | 0.00 | 0.00 | 0.00 | 95 | 1019.9 |
| 20260905110920 | 50 | 152 | 0.0 | 0.0 | 0.00 | 0.00 | 0.00 | 95 | 1019.9 |
| 20260905110413 | 50 | 147 | 0.0 | 0.0 | 0.00 | 0.00 | 0.00 | 95 | 1019.7 |
| 20260905105908 | 51 | 154 | 0.0 | 0.0 | 0.00 | 0.00 | 0.00 | 95 | 1019.7 |
| 20260905105408 | 51 | 140 | 0.0 | 0.0 | 0.00 | 0.00 | 0.00 | 95 | 1019.7 |
| 20260905104903 | 51 | 132 | 0.0 | 0.0 | 0.00 | 0.00 | 0.00 | 95 | 1019.8 |
| 20260905104358 | 51 | 150 | 0.0 | 0.0 | 0.00 | 0.00 | 0.00 | 95 | 1019.8 |
| 20260905103853 | 51 | 151 | 0.0 | 0.0 | 0.00 | 0.00 | 0.00 | 95 | 1019.7 |
| 20260905103349 | 51 | 141 | 0.0 | 0.0 | 0.00 | 0.00 | 0.00 | 95 | 1019.6 |
| 20260905102844 | 51 | 142 | 0.0 | 0.0 | 0.00 | 0.00 | 0.00 | 95 | 1019.6 |
| 20260905102341 | 51 | 156 | 0.0 | 0.0 | 0.00 | 0.00 | 0.00 | 95 | 1019.6 |
| 20260905101840 | 51 | 149 | 0.0 | 0.0 | 0.00 | 0.00 | 0.00 | 95 | 1019.5 |
| 20260905101338 | 51 | 137 | 0.0 | 0.0 | 0.00 | 0.00 | 0.00 | 95 | 1019.7 |
| 20260905100833 | 51 | 141 | 0.0 | 2.6 | 0.00 | 0.00 | 0.00 | 95 | 1019.6 |
| 20260905100329 | 52 | 136 | 0.9 | 1.7 | 0.00 | 0.00 | 0.00 | 95 | 1019.7 |
| 20260905095823 | 52 | 138 | 0.0 | 0.0 | 0.00 | 0.00 | 0.00 | 95 | 1019.5 |
| 20260905095322 | 51 | 138 | 0.9 | 1.7 | 0.00 | 0.00 | 0.00 | 95 | 1019.5 |
| 20260905094817 | 51 | 127 | 0.0 | 0.0 | 0.00 | 0.00 | 0.00 | 95 | 1019.4 |
| 20260905094313 | 51 | 152 | 0.0 | 0.0 | 0.00 | 0.00 | 0.00 | 95 | 1019.4 |
| 20260905093812 | 51 | 152 | 0.0 | 0.0 | 0.00 | 0.00 | 0.00 | 94 | 1019.7 |
| 20260905093308 | 51 | 151 | 0.0 | 0.0 | 0.00 | 0.00 | 0.00 | 94 | 1019.5 |
| 20260905092758 | 52 | 151 | 0.0 | 0.0 | 0.00 | 0.00 | 0.00 | 94 | 1019.4 |
| 20260905092253 | 52 | 150 | 0.0 | 0.0 | 0.00 | 0.00 | 0.00 | 94 | 1019.3 |
| 20260905091752 | 52 | 147 | 0.0 | 0.0 | 0.00 | 0.00 | 0.00 | 94 | 1019.5 |
| 20260905091247 | 52 | 137 | 0.0 | 0.0 | 0.00 | 0.00 | 0.00 | 94 | 1019.4 |
| 20260905090741 | 52 | 149 | 0.0 | 0.0 | 0.00 | 0.00 | 0.00 | 94 | 1019.5 |
| 20260905090236 | 52 | 149 | 0.0 | 0.0 | 0.00 | 0.00 | 0.00 | 94 | 1019.3 |
| 20260905085735 | 52 | 138 | 0.0 | 0.0 | 0.00 | 0.00 | 0.00 | 94 | 1019.5 |
| 20260905085230 | 52 | 146 | 0.0 | 0.0 | 0.00 | 0.00 | 0.00 | 94 | 1019.2 |
| 20260905084730 | 52 | 145 | 0.0 | 0.0 | 0.00 | 0.00 | 0.00 | 94 | 1019.3 |
| 20260905084230 | 52 | 146 | 0.0 | 0.0 | 0.00 | 0.00 | 0.00 | 94 | 1019.1 |
| 20260905083725 | 52 | 146 | 0.0 | 0.0 | 0.00 | 0.00 | 0.00 | 94 | 1019.2 |
| 20260905083221 | 52 | 152 | 0.0 | 0.0 | 0.00 | 0.00 | 0.00 | 94 | 1019.3 |
| 20260905082717 | 52 | 148 | 0.0 | 0.0 | 0.00 | 0.00 | 0.00 | 93 | 1019.4 |
| 20260905082212 | 52 | 141 | 0.0 | 0.0 | 0.00 | 0.00 | 0.00 | 93 | 1019.1 |
| 20260905081712 | 52 | 147 | 0.0 | 0.0 | 0.00 | 0.00 | 0.00 | 93 | 1019.2 |
| 20260905081207 | 52 | 146 | 0.0 | 0.0 | 0.00 | 0.00 | 0.00 | 93 | 1019.0 |
| 20260905080707 | 53 | 146 | 0.0 | 0.0 | 0.00 | 0.00 | 0.00 | 93 | 1019.2 |
| 20260905080201 | 53 | 146 | 0.0 | 0.0 | 0.00 | 0.00 | 0.00 | 93 | 1019.3 |
| 20260905075701 | 53 | 145 | 0.0 | 0.0 | 0.00 | 0.00 | 0.00 | 93 | 1019.3 |
| 20260905075200 | 53 | 147 | 0.0 | 0.0 | 0.00 | 0.00 | 0.00 | 92 | 1019.2 |
| 20260905074659 | 53 | 146 | 0.0 | 0.0 | 0.00 | 0.00 | 0.00 | 92 | 1019.2 |
| 20260905074154 | 53 | 151 | 0.0 | 0.0 | 0.00 | 0.00 | 0.00 | 92 | 1019.4 |
| 20260905073650 | 53 | 147 | 0.0 | 0.0 | 0.00 | 0.00 | 0.00 | 92 | 1019.4 |
| 20260905073146 | 53 | 140 | 0.0 | 0.0 | 0.00 | 0.00 | 0.00 | 92 | 1019.2 |
| 20260905072644 | 53 | 147 | 0.0 | 0.0 | 0.00 | 0.00 | 0.00 | 91 | 1019.1 |
| 20260905072140 | 53 | 151 | 0.0 | 0.0 | 0.00 | 0.00 | 0.00 | 91 | 1019.3 |
| 20260905071637 | 53 | 150 | 0.0 | 0.0 | 0.00 | 0.00 | 0.00 | 91 | 1019.3 |
| 20260905071132 | 54 | 149 | 0.0 | 0.0 | 0.00 | 0.00 | 0.00 | 91 | 1019.0 |
| 20260905070627 | 54 | 145 | 0.0 | 0.0 | 0.00 | 0.00 | 0.00 | 90 | 1018.8 |
| 20260905070123 | 54 | 152 | 0.0 | 0.0 | 0.00 | 0.00 | 0.00 | 90 | 1019.2 |
| 20260905065621 | 54 | 150 | 0.0 | 0.0 | 0.00 | 0.01 | 0.01 | 90 | 1019.0 |
| 20260905065116 | 54 | 147 | 0.0 | 0.0 | 0.00 | 0.01 | 0.01 | 90 | 1018.9 |
| 20260905064611 | 54 | 147 | 0.0 | 0.0 | 0.00 | 0.01 | 0.01 | 90 | 1019.0 |
| 20260905064106 | 54 | 147 | 0.0 | 0.0 | 0.00 | 0.01 | 0.01 | 90 | 1019.0 |
| 20260905063605 | 55 | 151 | 0.0 | 0.0 | 0.00 | 0.01 | 0.01 | 89 | 1018.9 |
| 20260905063101 | 55 | 149 | 0.0 | 0.0 | 0.00 | 0.01 | 0.01 | 89 | 1018.9 |
| 20260905062557 | 55 | 149 | 0.0 | 0.0 | 0.00 | 0.01 | 0.01 | 88 | 1018.7 |
| 20260905062050 | 55 | 160 | 0.0 | 0.0 | 0.00 | 0.01 | 0.01 | 88 | 1018.8 |
| 20260905061545 | 55 | 146 | 0.0 | 0.0 | 0.00 | 0.01 | 0.01 | 87 | 1018.5 |
| 20260905061044 | 55 | 146 | 0.0 | 0.0 | 0.00 | 0.01 | 0.01 | 87 | 1018.7 |
| 20260905060541 | 56 | 142 | 0.0 | 0.0 | 0.00 | 0.01 | 0.01 | 87 | 1018.4 |
| 20260905060036 | 56 | 145 | 0.0 | 0.0 | 0.00 | 0.01 | 0.01 | 86 | 1018.6 |
| 20260905055535 | 56 | 142 | 0.0 | 0.0 | 0.00 | 0.01 | 0.01 | 85 | 1018.3 |
| 20260905055030 | 57 | 139 | 0.0 | 0.0 | 0.00 | 0.01 | 0.01 | 85 | 1018.4 |
| 20260905054526 | 57 | 142 | 0.0 | 0.0 | 0.00 | 0.01 | 0.01 | 84 | 1018.4 |
| 20260905054021 | 57 | 139 | 0.0 | 0.0 | 0.00 | 0.01 | 0.01 | 84 | 1018.4 |
| 20260905053515 | 57 | 131 | 0.0 | 0.0 | 0.00 | 0.01 | 0.01 | 84 | 1018.4 |
| 20260905053011 | 57 | 124 | 0.0 | 0.0 | 0.00 | 0.01 | 0.01 | 84 | 1018.4 |
| 20260905052510 | 57 | 132 | 0.0 | 0.0 | 0.00 | 0.01 | 0.01 | 84 | 1018.4 |
| 20260905052004 | 57 | 120 | 0.0 | 0.0 | 0.00 | 0.01 | 0.01 | 85 | 1018.6 |
| 20260905051459 | 57 | 150 | 0.0 | 0.0 | 0.00 | 0.01 | 0.01 | 85 | 1018.5 |
| 20260905050957 | 57 | 147 | 0.0 | 0.0 | 0.00 | 0.01 | 0.01 | 84 | 1018.5 |
| 20260905050452 | 57 | 158 | 0.0 | 0.0 | 0.00 | 0.01 | 0.01 | 84 | 1018.5 |
| 20260905045948 | 57 | 153 | 0.0 | 0.0 | 0.00 | 0.01 | 0.01 | 83 | 1018.5 |
| 20260905045443 | 58 | 143 | 0.0 | 0.0 | 0.00 | 0.01 | 0.01 | 83 | 1018.6 |
| 20260905044938 | 58 | 133 | 0.0 | 0.0 | 0.00 | 0.01 | 0.01 | 83 | 1018.3 |
| 20260905044433 | 57 | 134 | 0.0 | 0.0 | 0.00 | 0.01 | 0.01 | 83 | 1018.5 |
| 20260905043932 | 57 | 136 | 0.0 | 0.0 | 0.00 | 0.01 | 0.01 | 82 | 1018.6 |
| 20260905043431 | 58 | 151 | 0.0 | 0.0 | 0.00 | 0.01 | 0.01 | 82 | 1018.7 |
| 20260905042926 | 58 | 151 | 0.0 | 0.0 | 0.00 | 0.01 | 0.01 | 82 | 1018.7 |
| 20260905042421 | 58 | 151 | 0.0 | 0.0 | 0.00 | 0.01 | 0.01 | 82 | 1018.7 |
| 20260905041916 | 58 | 152 | 0.0 | 0.0 | 0.00 | 0.01 | 0.01 | 81 | 1018.6 |
| 20260905041412 | 58 | 150 | 0.0 | 0.0 | 0.00 | 0.01 | 0.01 | 81 | 1018.4 |
| 20260905040907 | 58 | 149 | 0.0 | 0.0 | 0.00 | 0.01 | 0.01 | 81 | 1018.4 |
| 20260905040406 | 58 | 134 | 0.0 | 0.0 | 0.00 | 0.01 | 0.01 | 80 | 1018.4 |
| 20260905035906 | 58 | 137 | 0.0 | 0.0 | 0.00 | 0.01 | 0.01 | 80 | 1018.5 |
| 20260905035401 | 58 | 145 | 0.0 | 0.0 | 0.00 | 0.01 | 0.01 | 80 | 1018.5 |
| 20260905034858 | 59 | 143 | 0.0 | 0.0 | 0.00 | 0.01 | 0.01 | 79 | 1018.5 |
| 20260905034353 | 59 | 146 | 0.0 | 0.0 | 0.00 | 0.01 | 0.01 | 78 | 1018.3 |
| 20260905033851 | 59 | 120 | 0.0 | 0.0 | 0.00 | 0.01 | 0.01 | 77 | 1018.2 |
| 20260905033347 | 59 | 130 | 0.0 | 0.0 | 0.00 | 0.01 | 0.01 | 77 | 1018.5 |
| 20260905032846 | 59 | 125 | 0.0 | 0.0 | 0.00 | 0.01 | 0.01 | 78 | 1018.2 |
| 20260905032342 | 59 | 132 | 0.0 | 0.0 | 0.00 | 0.01 | 0.01 | 77 | 1018.2 |
| 20260905031837 | 59 | 123 | 0.0 | 0.0 | 0.00 | 0.01 | 0.01 | 76 | 1017.8 |
| 20260905031333 | 59 | 138 | 0.0 | 0.0 | 0.00 | 0.01 | 0.01 | 75 | 1018.1 |
| 20260905030828 | 60 | 143 | 0.0 | 0.0 | 0.00 | 0.01 | 0.01 | 75 | 1018.1 |
| 20260905030324 | 60 | 149 | 0.0 | 0.0 | 0.00 | 0.01 | 0.01 | 75 | 1018.1 |